[Date Prev][Date Next][Thread Prev][Thread Next] - [Date Index][Thread Index][Author Index]
2 Line ISS Keps 12-5
- Subject: [sarex] 2 Line ISS Keps 12-5
- From: "Dave Larsen PhD" <doc@xxxxxxxxxxx>
- Date: Mon, 5 Jan 2004 03:07:24 -0800
ISS
1 25544U 98067A 04005.18619801 .00020815 00000-0 20109-3 0 9691
2 25544 51.6296 80.1906 0006782 343.6203 39.4899 15.66397108292594
----
Via the sarex mailing list at AMSAT.ORG courtesy of AMSAT-NA.
To unsubscribe, send "unsubscribe sarex" to Majordomo@amsat.org
AMSAT Home